Maastricht, Netherlands

11:59 AM CEST on August 22, 2017 (GMT +0200)
Maastricht-Aachen

Weather History for EHBK - December, 2012

Change the Weather History Date:

Sunday, December 9, 2012

  Actual Average Record
Temperature  
Mean Temperature 34 °F -  
Max Temperature 41 °F 41 °F 54 °F (2016)
Min Temperature 26 °F 32 °F 21 °F (2002)
Degree Days  
Heating Degree Days 32    
Moisture  
Dew Point 34 °F    
Average Humidity 95    
Maximum Humidity 100    
Minimum Humidity 85    
Precipitation  
Precipitation 0.16 in 0.09 in - ()
Sea Level Pressure  
Sea Level Pressure 29.98 in    
Wind  
Wind Speed 15 mph ()    
Max Wind Speed 25 mph    
Max Gust Speed 23 mph    
Visibility 3.9 miles    
Events Rain , Snow    
Averages and records for this station are not official NWS values.
T = Trace of Precipitation, MM = Missing Value Source: Averaged Metar Reports

Daily Weather History Graph

Daily Weather History Graph

Search for Another Location

Airport or City:

Trip Planner

Search our weather history database for the weather conditions in past years. The results will help you decide how hot, cold, wet, or windy it might be!

Date:

Astronomy

Dec. 09, 2012 Rise Set
Actual Time 8:27 AM CET 4:30 PM CET
Civil Twilight 7:48 AM CET 5:09 PM CET
Nautical Twilight 7:06 AM CET 5:52 PM CET
Astronomical Twilight 6:26 AM CET 6:32 PM CET
Moon 3:19 AM CET (12/9) 1:47 PM CET (12/9)
Length of Visible Light 9h 21m
Length of Day
8h 03m
Waning Crescent, 21% of the Moon is Illuminated
Dec 9
Waning Crescent
Dec 13
New
Dec 20
First Quarter
Dec 28
Full
Jan 5
Last Quarter

Hourly Weather History & Observations

Time (CET) Temp. Windchill Dew Point Humidity Pressure Visibility Wind Dir Wind Speed Gust Speed Precip Events Conditions
12:25 AM 26.6 °F 14.7 °F 24.8 °F 93% 30.24 in 5.0 mi SSW 15.0 mph - N/A   Unknown
12:55 AM 28.4 °F 16.6 °F 24.8 °F 86% 30.24 in 5.0 mi SSW 16.1 mph - N/A   Partly Cloudy
1:00 AM 28 °F - 25 °F 85% 30.28 in 4 mi SSW 15.7 mph - -   Mist
1:25 AM 28.4 °F 16.6 °F 26.6 °F 93% 30.24 in 4.3 mi SSW 16.1 mph - N/A   Mostly Cloudy
1:55 AM 28.4 °F 16.2 °F 26.6 °F 93% 30.21 in 4.3 mi SSW 17.3 mph - N/A   Overcast
2:25 AM 28.4 °F 16.2 °F 26.6 °F 93% 30.21 in 5.0 mi SSW 17.3 mph - N/A   Mostly Cloudy
2:55 AM 28.4 °F 16.6 °F 26.6 °F 93% 30.21 in 5.0 mi SSW 16.1 mph - N/A   Overcast
3:25 AM 30.2 °F 18.9 °F 26.6 °F 86% 30.21 in 1.7 mi SSW 16.1 mph - N/A Snow Light Snow
3:55 AM 30.2 °F 19.3 °F 28.4 °F 93% 30.18 in 1.6 mi SSW 15.0 mph - N/A Snow Light Snow
4:00 AM 29 °F - 29 °F 98% 30.22 in 1 mi SSW 15.7 mph - - Snow Snow Showers
4:25 AM 30.2 °F 18.9 °F 30.2 °F 100% 30.18 in 0.7 mi SSW 16.1 mph - N/A Snow Snow
4:55 AM 30.2 °F 18.1 °F 30.2 °F 100% 30.15 in 1.6 mi SSW 18.4 mph - N/A Snow Light Snow
5:25 AM 30.2 °F 18.5 °F 30.2 °F 100% 30.12 in 1.4 mi SSW 17.3 mph - N/A Snow Light Snow
5:55 AM 32.0 °F 18.6 °F 30.2 °F 93% 30.12 in 1.6 mi SW 25.3 mph - N/A Snow Light Snow
6:25 AM 32.0 °F 19.5 °F 30.2 °F 93% 30.09 in 1.6 mi SSW 21.9 mph - N/A Snow Light Snow
6:55 AM 32.0 °F 19.2 °F 32.0 °F 100% 30.09 in 2.5 mi SSW 23.0 mph - N/A Snow Light Snow
7:00 AM 32 °F - 31 °F 96% 30.13 in 3 mi SSW 22.4 mph - - Snow Light Snow
7:25 AM 32.0 °F 20.1 °F 32.0 °F 100% 30.09 in 3.1 mi SW 19.6 mph - N/A Rain Rain
7:55 AM 33.8 °F 22.2 °F 32.0 °F 93% 30.06 in 2.8 mi SW 20.7 mph - N/A Rain Rain
8:25 AM 33.8 °F 22.2 °F 32.0 °F 93% 30.06 in 2.5 mi SW 20.7 mph - N/A Rain Light Rain
8:55 AM 33.8 °F 21.9 °F 33.8 °F 100% 30.04 in 1.3 mi SW 21.9 mph - N/A   Drizzle
9:25 AM 33.8 °F 22.2 °F 33.8 °F 100% 30.04 in 1.2 mi SW 20.7 mph - N/A Rain Light Rain
9:55 AM 35.6 °F 24.8 °F 33.8 °F 93% 30.04 in - SW 19.6 mph - N/A   Heavy Drizzle
10:00 AM 35 °F - 34 °F 94% 30.06 in 2 mi SW 17.9 mph - - Rain Heavy Drizzle
10:25 AM 35.6 °F 25.2 °F 35.6 °F 100% 30.01 in 1.6 mi SW 18.4 mph - N/A Rain Light Rain
10:55 AM 35.6 °F 25.2 °F 35.6 °F 100% 30.01 in 1.1 mi SW 18.4 mph - N/A Rain Light Rain
11:25 AM 35.6 °F 24.8 °F 35.6 °F 100% 29.98 in - SW 19.6 mph - N/A   Light Drizzle
11:55 AM 37.4 °F 27.2 °F 35.6 °F 93% 29.98 in 1.5 mi SW 19.6 mph - N/A Rain Light Rain
12:25 PM 37.4 °F 27.5 °F 37.4 °F 100% 29.95 in 3.7 mi SW 18.4 mph - N/A   Overcast
12:55 PM 37.4 °F 27.8 °F 37.4 °F 100% 29.95 in 2.8 mi SW 17.3 mph - N/A   Drizzle
1:00 PM 37 °F - 37 °F 98% 29.97 in 2 mi SW 17.9 mph - - Rain Light Rain Showers
1:25 PM 37.4 °F 27.8 °F 37.4 °F 100% 29.92 in - SW 17.3 mph - N/A Rain Rain
1:55 PM 37.4 °F 27.5 °F 37.4 °F 100% 29.92 in - SW 18.4 mph - N/A Rain Heavy Rain Showers
2:25 PM 37.4 °F 27.5 °F 37.4 °F 100% 29.89 in - SW 18.4 mph - N/A   Drizzle
2:55 PM 39.2 °F 30.2 °F 39.2 °F 100% 29.89 in - SW 17.3 mph - N/A   Drizzle
3:25 PM 39.2 °F 31.6 °F 39.2 °F 100% 29.86 in 2.8 mi WSW 12.7 mph - N/A   Heavy Drizzle
3:55 PM 39.2 °F 30.8 °F 39.2 °F 100% 29.86 in 4.3 mi WSW 15.0 mph - N/A Rain Light Rain
4:00 PM 40 °F - 40 °F 99% 29.89 in 4 mi WSW 13.4 mph - - Rain Light Rain
4:25 PM 41.0 °F 33.5 °F 39.2 °F 93% 29.86 in 4.3 mi WSW 13.8 mph - N/A   Light Drizzle
4:55 PM 41.0 °F 33.1 °F 39.2 °F 93% 29.86 in - SW 15.0 mph - N/A Rain Light Rain
5:25 PM 41.0 °F 33.9 °F 39.2 °F 93% 29.83 in 5.6 mi WSW 12.7 mph - N/A   Mostly Cloudy
5:55 PM 41.0 °F 33.1 °F 41.0 °F 100% 29.83 in 5.6 mi SW 15.0 mph - N/A   Overcast
6:25 PM 41.0 °F 32.5 °F 41.0 °F 100% 29.80 in 6.2 mi SW 17.3 mph - N/A   Overcast
6:55 PM 41.0 °F 33.1 °F 39.2 °F 93% 29.80 in 6.2 mi WSW 15.0 mph - N/A   Mostly Cloudy
7:00 PM 42 °F - 40 °F 89% 29.83 in 7 mi WSW 13.4 mph - - Rain Light Rain Showers
7:25 PM 37.4 °F 28.9 °F 37.4 °F 100% 29.80 in 3.7 mi WNW 13.8 mph - N/A Rain Heavy Rain Showers
7:55 PM 39.2 °F 32.5 °F 37.4 °F 93% 29.80 in 6.2 mi West 10.4 mph - N/A Rain Light Rain Showers
8:25 PM 39.2 °F 33.6 °F 37.4 °F 93% 29.80 in 6.2 mi West 8.1 mph - N/A   Scattered Clouds
8:55 PM 39.2 °F 33.6 °F 37.4 °F 93% 29.80 in 6.2 mi WSW 8.1 mph - N/A   Partly Cloudy
9:25 PM 39.2 °F 32.5 °F 37.4 °F 93% 29.77 in 6.2 mi WSW 10.4 mph - N/A   Mostly Cloudy
9:55 PM 39.2 °F 32.5 °F 37.4 °F 93% 29.77 in 6.2 mi WSW 10.4 mph - N/A   Unknown
10:00 PM 38 °F - 36 °F 92% 29.80 in 9 mi WSW 11.2 mph - -   Partly Cloudy
10:25 PM 39.2 °F 33.0 °F 37.4 °F 93% 29.77 in 6.2 mi West 9.2 mph - N/A   Overcast
10:55 PM 39.2 °F 32.0 °F 35.6 °F 87% 29.77 in 6.2 mi West 11.5 mph 23.0 mph N/A   Drizzle
11:25 PM 37.4 °F 30.3 °F 35.6 °F 93% 29.77 in 6.2 mi West 10.4 mph - N/A   Unknown
11:55 PM 37.4 °F 30.3 °F 33.8 °F 87% 29.77 in 6.2 mi West 10.4 mph - N/A   Mostly Cloudy